When you browse on this site, cookies collect data to enhance your experience and personalize the content and advertising you see.
Visit our Privacy Policy to learn more. By continuing to use the site, you agree to this use of cookies and data.
  • In United Kingdom
  • List of Countries
  • For 7 days
  • Water Temperature
  • Weather Map
  • Weather Widgets
  • user-avatar
    Login

    Hourly Weather Stara Zagora

    Today, 19 October, Saturday

    Time Temperature Precipitation Wind Pressure Humidity
    00:00 +18°C° 0 mm 1 mps 743 mmHg 65%
    01:00 +18°C° 0 mm 1 mps 743 mmHg 67%
    02:00 +16°C° 0 mm 1 mps 743 mmHg 71%
    03:00 +16°C° 0 mm 1 mps 743 mmHg 72%
    04:00 +15°C° 0 mm 0 mps 743 mmHg 73%
    05:00 +14°C° 0 mm 0 mps 743 mmHg 74%
    06:00 +15°C° 0 mm 0 mps 743 mmHg 71%
    07:00 +16°C° 0 mm 0 mps 744 mmHg 69%
    08:00 +17°C° 0 mm 0 mps 744 mmHg 64%
    09:00 +21°C° 0 mm 1 mps 744 mmHg 58%
    10:00 +22°C° 0 mm 1 mps 744 mmHg 52%
    11:00 +24°C° 0 mm 1 mps 744 mmHg 46%
    12:00 +25°C° 0 mm 1 mps 744 mmHg 43%
    13:00 +26°C° 0 mm 1 mps 744 mmHg 40%
    14:00 +27°C° 0 mm 2 mps 744 mmHg 37%
    15:00 +26°C° 0 mm 2 mps 743 mmHg 40%
    16:00 +25°C° 0 mm 1 mps 743 mmHg 42%
    17:00 +24°C° 0 mm 1 mps 743 mmHg 45%
    18:00 +23°C° 0 mm 1 mps 743 mmHg 49%
    19:00 +21°C° 0 mm 1 mps 744 mmHg 53%
    20:00 +19°C° 0 mm 2 mps 744 mmHg 57%
    21:00 +18°C° 0 mm 2 mps 744 mmHg 64%
    22:00 +18°C° 0 mm 2 mps 744 mmHg 71%
    23:00 +17°C° 0 mm 2 mps 745 mmHg 78%

    Tomorrow, 20 October, Sunday

    Time Temperature Precipitation Wind Pressure Humidity
    00:00 +18°C° 0 mm 1 mps 745 mmHg 80%
    01:00 +16°C° 0 mm 1 mps 745 mmHg 82%
    02:00 +16°C° 0 mm 1 mps 745 mmHg 85%
    03:00 +16°C° 0 mm 1 mps 745 mmHg 85%
    04:00 +15°C° 0 mm 1 mps 745 mmHg 86%
    05:00 +14°C° 0 mm 0 mps 745 mmHg 87%
    06:00 +15°C° 0 mm 0 mps 745 mmHg 83%
    07:00 +15°C° 0 mm 0 mps 745 mmHg 80%
    08:00 +16°C° 0 mm 0 mps 745 mmHg 76%
    09:00 +18°C° 0 mm 0 mps 746 mmHg 68%
    10:00 +22°C° 0 mm 1 mps 746 mmHg 60%
    11:00 +24°C° 0 mm 1 mps 746 mmHg 52%
    12:00 +25°C° 0 mm 1 mps 746 mmHg 48%
    13:00 +26°C° 0 mm 1 mps 745 mmHg 45%
    14:00 +27°C° 0 mm 2 mps 745 mmHg 42%
    15:00 +26°C° 0 mm 2 mps 745 mmHg 44%
    16:00 +25°C° 0 mm 1 mps 745 mmHg 47%
    17:00 +24°C° 0 mm 1 mps 745 mmHg 50%
    18:00 +23°C° 0 mm 1 mps 745 mmHg 55%
    19:00 +20°C° 0 mm 2 mps 745 mmHg 60%
    20:00 +19°C° 0 mm 2 mps 746 mmHg 64%
    21:00 +18°C° 0 mm 2 mps 746 mmHg 68%
    22:00 +17°C° 0 mm 2 mps 746 mmHg 72%
    23:00 +18°C° 0 mm 1 mps 746 mmHg 76%

    Day after tomorrow, 21 October, Monday

    Time Temperature Precipitation Wind Pressure Humidity
    00:00 +16°C° 0 mm 1 mps 746 mmHg 78%
    01:00 +16°C° 0 mm 1 mps 746 mmHg 79%
    02:00 +15°C° 0 mm 1 mps 746 mmHg 81%
    03:00 +15°C° 0 mm 1 mps 746 mmHg 82%
    04:00 +15°C° 0 mm 1 mps 746 mmHg 83%
    05:00 +14°C° 0 mm 0 mps 746 mmHg 84%
    06:00 +14°C° 0 mm 0 mps 746 mmHg 81%
    07:00 +15°C° 0 mm 0 mps 746 mmHg 78%
    08:00 +16°C° 0 mm 0 mps 746 mmHg 75%
    09:00 +18°C° 0 mm 0 mps 746 mmHg 66%
    10:00 +20°C° 0 mm 0 mps 747 mmHg 58%
    11:00 +24°C° 0 mm 1 mps 747 mmHg 50%
    12:00 +25°C° 0 mm 1 mps 747 mmHg 47%
    13:00 +25°C° 0 mm 1 mps 746 mmHg 43%
    14:00 +26°C° 0 mm 2 mps 746 mmHg 40%
    15:00 +25°C° 0 mm 2 mps 746 mmHg 42%
    16:00 +24°C° 0 mm 2 mps 746 mmHg 45%
    17:00 +24°C° 0 mm 1 mps 746 mmHg 47%
    18:00 +22°C° 0 mm 1 mps 746 mmHg 53%
    19:00 +21°C° 0 mm 1 mps 746 mmHg 58%
    20:00 +19°C° 0 mm 1 mps 746 mmHg 64%
    21:00 +18°C° 0 mm 1 mps 746 mmHg 67%
    22:00 +18°C° 0 mm 1 mps 746 mmHg 70%
    23:00 +16°C° 0 mm 1 mps 746 mmHg 73%

    22 October, Tuesday

    Time Temperature Precipitation Wind Pressure Humidity
    00:00 +16°C° 0 mm 1 mps 746 mmHg 74%
    01:00 +16°C° 0 mm 1 mps 746 mmHg 75%
    02:00 +15°C° 0 mm 1 mps 746 mmHg 76%
    03:00 +15°C° 0 mm 1 mps 746 mmHg 77%
    04:00 +15°C° 0 mm 1 mps 746 mmHg 77%
    05:00 +15°C° 0 mm 1 mps 746 mmHg 77%
    06:00 +15°C° 0 mm 1 mps 746 mmHg 73%
    07:00 +16°C° 0 mm 1 mps 746 mmHg 69%
    08:00 +18°C° 0 mm 1 mps 747 mmHg 65%
    09:00 +20°C° 0 mm 1 mps 747 mmHg 56%
    10:00 +22°C° 0 mm 1 mps 747 mmHg 47%
    11:00 +25°C° 0 mm 1 mps 747 mmHg 38%
    12:00 +25°C° 0 mm 1 mps 747 mmHg 35%
    13:00 +26°C° 0 mm 1 mps 746 mmHg 32%
    14:00 +27°C° 0 mm 2 mps 746 mmHg 29%
    15:00 +26°C° 0 mm 2 mps 746 mmHg 33%
    16:00 +25°C° 0 mm 2 mps 746 mmHg 36%
    17:00 +24°C° 0 mm 2 mps 746 mmHg 40%
    18:00 +21°C° 0 mm 2 mps 746 mmHg 44%
    19:00 +20°C° 0 mm 2 mps 746 mmHg 48%
    20:00 +19°C° 0 mm 1 mps 746 mmHg 52%
    21:00 +18°C° 0 mm 1 mps 746 mmHg 56%
    22:00 +18°C° 0 mm 1 mps 746 mmHg 60%
    23:00 +16°C° 0 mm 1 mps 747 mmHg 64%

    23 October, Wednesday

    Time Temperature Precipitation Wind Pressure Humidity
    00:00 +15°C° 0 mm 1 mps 746 mmHg 66%
    01:00 +15°C° 0 mm 1 mps 746 mmHg 68%
    02:00 +15°C° 0 mm 1 mps 746 mmHg 69%
    03:00 +14°C° 0 mm 1 mps 746 mmHg 69%
    04:00 +14°C° 0 mm 1 mps 746 mmHg 68%
    05:00 +14°C° 0 mm 1 mps 746 mmHg 67%
    06:00 +14°C° 0 mm 1 mps 746 mmHg 63%
    07:00 +15°C° 0 mm 1 mps 746 mmHg 60%
    08:00 +16°C° 0 mm 1 mps 746 mmHg 56%
    09:00 +19°C° 0 mm 1 mps 746 mmHg 47%
    10:00 +21°C° 0 mm 1 mps 746 mmHg 38%
    11:00 +23°C° 0 mm 1 mps 746 mmHg 29%
    12:00 +24°C° 0 mm 1 mps 746 mmHg 27%
    13:00 +25°C° 0 mm 2 mps 746 mmHg 25%
    14:00 +26°C° 0 mm 2 mps 746 mmHg 23%
    15:00 +24°C° 0 mm 2 mps 745 mmHg 28%
    16:00 +23°C° 0 mm 2 mps 745 mmHg 33%
    17:00 +21°C° 0 mm 2 mps 745 mmHg 38%
    18:00 +20°C° 0 mm 1 mps 745 mmHg 43%
    19:00 +19°C° 0 mm 1 mps 746 mmHg 48%
    20:00 +16°C° 0 mm 1 mps 746 mmHg 53%
    21:00 +16°C° 0 mm 1 mps 746 mmHg 55%
    22:00 +15°C° 0 mm 1 mps 746 mmHg 57%
    23:00 +13°C° 0 mm 0 mps 746 mmHg 59%

    24 October, Thursday

    Time Temperature Precipitation Wind Pressure Humidity
    00:00 +13°C° 0 mm 0 mps 746 mmHg 59%
    01:00 +13°C° 0 mm 0 mps 746 mmHg 59%
    02:00 +12°C° 0 mm 0 mps 745 mmHg 59%
    03:00 +13°C° 0 mm 1 mps 745 mmHg 59%
    04:00 +13°C° 0 mm 1 mps 745 mmHg 58%
    05:00 +13°C° 0 mm 1 mps 745 mmHg 58%
    06:00 +13°C° 0 mm 1 mps 745 mmHg 55%
    07:00 +14°C° 0 mm 1 mps 745 mmHg 52%
    08:00 +15°C° 0 mm 1 mps 745 mmHg 49%
    09:00 +18°C° 0 mm 1 mps 745 mmHg 41%
    10:00 +21°C° 0 mm 1 mps 745 mmHg 34%
    11:00 +23°C° 0 mm 1 mps 745 mmHg 27%
    12:00 +24°C° 0 mm 1 mps 745 mmHg 26%
    13:00 +25°C° 0 mm 2 mps 745 mmHg 24%
    14:00 +25°C° 0 mm 2 mps 745 mmHg 23%
    15:00 +24°C° 0 mm 2 mps 744 mmHg 28%
    16:00 +23°C° 0 mm 2 mps 744 mmHg 33%
    17:00 +21°C° 0 mm 1 mps 744 mmHg 38%
    18:00 +20°C° 0 mm 1 mps 744 mmHg 44%
    19:00 +19°C° 0 mm 1 mps 744 mmHg 49%
    20:00 +16°C° 0 mm 1 mps 744 mmHg 55%
    21:00 +16°C° 0 mm 1 mps 744 mmHg 61%
    22:00 +15°C° 0 mm 1 mps 744 mmHg 67%
    23:00 +14°C° 0 mm 1 mps 744 mmHg 72%
    Show more